[[{"header":{"parameterUnit":"m.s-1","parameterCategory":1,"la1":30.2991,"la2":30.254,"lo1":-89.0895,"lo2":-89.0444,"dy":0.0017,"dx":0.0017,"nx":28,"ny":28,"refTime":"2023-09-10T21:00:00:Z","depth":0,"parameterNumber":2,"parameterNumberName":"U-component_of_WINDS"},"data":[0,0,0,0,0,0,0,0,0,0,0,0,0,0,0,0,0,0,0,0,0,0,0,0,0,0,0,0,0,0,0,0,0,0,0,0,0,0,0,0,0,0,0,0,0,0,0,0,0,0,0,0,0,0,0,0,0,0,0.0136,0.0137,0,0.022,0.0221,0.0222,0.0273,0.0273,0.0273,0.0274,0.0362,0.0364,0.0366,0,0,0,0,0,0,0,0,0,0,0,0,0,0.0022,0.0024,0.0136,0.0137,0.0138,0.022,0.0221,0.0222,0.0273,0.0273,0.0274,0.0274,0.0361,0.0363,0.0366,0,0,0,0,0,0,0,0,0,0,0,0,0,0.0086,0.0025,0.0136,0.0173,0.0178,0.022,0.0221,0.0223,0.0273,0.0273,0.0274,0.0274,0.036,0.0363,0.0366,0.0378,0,0,0.0376,0.0377,0,0,0,0,0,0,0,0,0.0082,0.009,0.0167,0.0171,0.0176,0.0236,0.0213,0.0275,0.0273,0.0237,0.0274,0.0274,0.032,0.0326,0.0341,0.0382,0.0386,0.0376,0.0378,0.0379,0.038,0,0,0,0,0,0,0,0.0077,0.0086,0.017,0.0168,0.0173,0.0187,0.0196,0.0225,0.0275,0.024,0.0244,0.0253,0.0322,0.0338,0.0344,0.0387,0.0376,0.0379,0.0381,0.0382,0.0443,0.0442,0,0,0,0,0,0,0.0067,0.0082,0.0167,0.0172,0.0129,0.0188,0.0199,0.0217,0.0275,0.0284,0.0253,0.0255,0.0332,0.034,0.0347,0.0364,0.0379,0.0382,0.0384,0.0443,0.0443,0.0442,0,0,0,0,0,0,0.0064,0.0074,0.0163,0.0128,0.0141,0.019,0.0209,0.0218,0.0234,0.0285,0.0294,0.0259,0.0333,0.0342,0.037,0.0368,0.0384,0.0387,0.0443,0.0443,0.0442,0.04,0,0,0,0,0,0,0.0061,0.0073,0.0077,0.0128,0.0142,0.0184,0.0209,0.0219,0.0239,0.0243,0.0293,0.0302,0.0334,0.0365,0.0373,0.0373,0.0389,0.0444,0.0443,0.0443,0.0401,0.0398,0.0395,0,0,0,0,0,0.0056,0.0062,0.0077,0.0087,0.0149,0.0184,0.0192,0.0228,0.0239,0.0244,0.0276,0.03,0.0367,0.0367,0.0377,0.0378,0.0444,0.0443,0.0443,0.0403,0.0398,0.0395,0,0,0,0,0,0,0.0011,0.007,0.0087,0.0109,0.0141,0.0192,0.02,0.0223,0.0253,0.0255,0.03,0.0311,0.0334,0.0359,0.0358,0.0392,0.0408,0.0409,0.0375,0.0371,0.0368,0.0361,0.0392,0,0,0,0,0,0.0003,0.0026,0.0077,0.0092,0.0107,0.015,0.0167,0.0192,0.0227,0.0241,0.0276,0.031,0.0338,0.0356,0.0386,0.0406,0.0417,0.0411,0.0407,0.0404,0.0405,0.0417,0.0414,0.044,0.044,0.044,0,0,-0.0012,0.0023,0.0035,0.0083,0.0111,0.0134,0.0162,0.0185,0.0203,0.0245,0.0273,0.0299,0.034,0.0363,0.0376,0.0385,0.04,0.0404,0.0401,0.0403,0.0416,0.0413,0.0411,0.044,0.044,0.044,0,0,-0.0028,0.0001,0.0016,0.0043,0.0084,0.0114,0.0117,0.0165,0.0184,0.0213,0.0245,0.0267,0.0315,0.0343,0.0363,0.0357,0.038,0.0366,0.0348,0.0359,0.0357,0.0355,0.0353,0.0351,0.0366,0.0366,0.0366,0,-0.0052,-0.0017,0.0021,0.0042,0.0063,0.0102,0.0118,0.0142,0.0191,0.0205,0.0215,0.0276,0.0306,0.0336,0.0335,0.035,0.0356,0.036,0.0354,0.0353,0.0352,0.035,0.0349,0.0364,0.0364,0.0364,0.0364,0,-0.0049,-0.0024,-0.0017,0.0028,0.005,0.0068,0.0109,0.0127,0.015,0.0178,0.0206,0.0244,0.0281,0.0291,0.0314,0.0324,0.0328,0.0346,0.0362,0.0347,0.0345,0.0345,0.0361,0.0362,0.0362,0.0363,0,0,-0.0092,-0.0026,-0.0024,-0.0003,0.0045,0.0065,0.0086,0.0121,0.0135,0.0168,0.0186,0.0226,0.0242,0.0265,0.0292,0.0302,0.0294,0.0318,0.032,0.0311,0.0307,0.0293,0.0291,0.031,0.031,0.031,0.0303,0,-0.0101,-0.0064,-0.0029,-0.0004,0.0019,0.0056,0.0074,0.0106,0.0133,0.0157,0.0188,0.0215,0.0234,0.0248,0.026,0.0292,0.0293,0.0293,0.0327,0.0328,0.0315,0.0291,0.0276,0.0268,0.0303,0.0303,0.0303,0,-0.0108,-0.0078,-0.0051,-0.0005,0.0006,0.0021,0.0056,0.0079,0.0116,0.0135,0.016,0.0188,0.0212,0.0227,0.0261,0.026,0.0276,0.0294,0.0295,0.0298,0.0314,0.0293,0.0266,0.0264,0.0303,0.0303,0.0303,0,-0.0143,-0.0096,-0.0074,-0.0057,-0.0002,0.0007,0.0031,0.0068,0.0087,0.0119,0.0131,0.0165,0.0184,0.0209,0.0246,0.0254,0.0276,0.0294,0.0292,0.0291,0.0294,0.0293,0.0268,0.0306,0.0306,0.0306,0.0306,0,-0.0158,-0.0143,-0.0089,-0.0075,-0.0057,-0.0017,-0.0,0.0027,0.006,0.0079,0.0115,0.0133,0.018,0.0204,0.0233,0.0256,0.0265,0.0281,0.0288,0.0277,0.0275,0.0287,0.0288,0.0306,0.0306,0.0306,0.0306,0,-0.0195,-0.0158,-0.0132,-0.0083,-0.007,-0.0059,-0.0016,-0.0001,0.0028,0.0052,0.006,0.0106,0.0136,0.0175,0.0218,0.0237,0.0256,0.0269,0.0243,0.0248,0.0243,0.0243,0.0225,0.0224,0.0263,0.0262,0.0262,0,-0.0208,-0.0196,-0.0146,-0.013,-0.0108,-0.0084,-0.0064,-0.0024,-0.0005,0.0038,0.0048,0.008,0.0108,0.0154,0.0192,0.0224,0.0237,0.0228,0.0242,0.023,0.0236,0.0234,0.0235,0.0225,0.0224,0.0223,0.0223,0,-0.0235,-0.0217,-0.0191,-0.0158,-0.0136,-0.0108,-0.0079,-0.0068,-0.0021,-0.0001,0.0029,0.005,0.0093,0.0125,0.0162,0.0187,0.0213,0.0219,0.022,0.0208,0.0192,0.02,0.0233,0.0219,0.0219,0.0219,0.022,0.022,-0.026,-0.0248,-0.0211,-0.0183,-0.0156,-0.013,-0.0114,-0.0083,-0.0057,-0.002,0.0003,0.0033,0.007,0.0123,0.0146,0.017,0.018,0.0182,0.0182,0.0182,0.0178,0.0189,0.0177,0.0178,0.0178,0.0178,0.0178,0,-0.0286,-0.026,-0.0235,-0.0195,-0.0173,-0.0151,-0.0117,-0.01,-0.0075,-0.0043,-0.0017,0.0018,0.0049,0.0089,0.0123,0.0134,0.0147,0.0141,0.0141,0.0146,0.0167,0.0163,0.0131,0.0131,0.0131,0.0131,0.0131,0.0131,-0.0297,-0.0275,-0.0253,-0.0218,-0.0192,-0.0163,-0.0146,-0.0121,-0.0095,-0.0058,-0.0033,-0.0007,0.0028,0.0065,0.0094,0.0105,0.0115,0.0106,0.0121,0.014,0.0144,0.0148,0.0144,0.0109,0.0109,0.0097,0.0097,0.0097]},{"header":{"parameterUnit":"m.s-1","parameterCategory":1,"la1":30.2991,"la2":30.254,"lo1":-89.0895,"lo2":-89.0444,"dy":0.0017,"dx":0.0017,"nx":28,"ny":28,"refTime":"2023-09-10T21:00:00:Z","depth":0,"parameterNumber":3,"parameterNumberName":"V-component_of_WINDS"},"data":[0,0,0,0,0,0,0,0,0,0,0,0,0,0,0,0,0,0,0,0,0,0,0,0,0,0,0,0,0,0,0,0,0,0,0,0,0,0,0,0,0,0,0,0,0,0,0,0,0,0,0,0,0,0,0,0,0,0,1.0674,1.0675,0,1.0699,1.0699,1.07,1.0712,1.0712,1.0712,1.0712,1.0735,1.0736,1.0736,0,0,0,0,0,0,0,0,0,0,0,0,0,1.0633,1.0634,1.0674,1.0675,1.0675,1.0699,1.0699,1.07,1.0712,1.0712,1.0712,1.0712,1.0735,1.0736,1.0736,0,0,0,0,0,0,0,0,0,0,0,0,0,1.0654,1.0634,1.0674,1.0684,1.0685,1.0699,1.0699,1.07,1.0712,1.0712,1.0712,1.0712,1.0735,1.0736,1.0737,1.0742,0,0,1.0739,1.074,0,0,0,0,0,0,0,0,1.0653,1.0655,1.0682,1.0683,1.0685,1.0702,1.0694,1.0714,1.0712,1.0702,1.0712,1.0712,1.0724,1.0726,1.073,1.0743,1.0744,1.0739,1.074,1.074,1.0741,0,0,0,0,0,0,0,1.0651,1.0654,1.0684,1.0683,1.0684,1.0686,1.0689,1.0697,1.0712,1.0702,1.0703,1.0706,1.0725,1.073,1.0731,1.0745,1.0739,1.074,1.0741,1.0741,1.076,1.076,0,0,0,0,0,0,1.0649,1.0653,1.0683,1.0685,1.0668,1.0686,1.069,1.0697,1.0712,1.0715,1.0706,1.0707,1.0728,1.073,1.0732,1.0738,1.074,1.0741,1.0742,1.076,1.076,1.076,0,0,0,0,0,0,1.0648,1.0651,1.0682,1.0669,1.0673,1.0687,1.0695,1.0697,1.0702,1.0715,1.0718,1.0709,1.0728,1.0731,1.0739,1.0739,1.0742,1.0743,1.076,1.076,1.076,1.075,0,0,0,0,0,0,1.0647,1.0651,1.0655,1.0669,1.0674,1.069,1.0695,1.0698,1.0704,1.0705,1.0718,1.072,1.0728,1.0737,1.074,1.074,1.0743,1.076,1.076,1.076,1.0751,1.075,1.0749,0,0,0,0,0,1.0645,1.0651,1.0655,1.0658,1.0679,1.069,1.0693,1.0702,1.0704,1.0706,1.0714,1.072,1.0738,1.0738,1.0741,1.0742,1.076,1.076,1.076,1.0751,1.075,1.0749,0,0,0,0,0,0,1.0636,1.0654,1.0658,1.0669,1.0678,1.0692,1.0696,1.0701,1.071,1.071,1.0721,1.0724,1.073,1.0737,1.0737,1.0746,1.075,1.075,1.0742,1.0741,1.074,1.0738,1.0744,0,0,0,0,0,1.0636,1.0645,1.0659,1.0667,1.0671,1.0683,1.0688,1.0694,1.0704,1.0708,1.0717,1.0725,1.0732,1.0737,1.0745,1.0751,1.0753,1.0753,1.0752,1.0751,1.0751,1.0753,1.0752,1.0759,1.0759,1.0759,0,0,1.0635,1.0645,1.065,1.0665,1.0673,1.068,1.0686,1.0694,1.0699,1.0709,1.0717,1.0723,1.0733,1.074,1.0743,1.0745,1.075,1.0751,1.0751,1.0751,1.0752,1.0752,1.0751,1.0759,1.0759,1.0759,0,0,1.0636,1.0646,1.0653,1.066,1.0671,1.0678,1.0679,1.0692,1.0697,1.0705,1.0712,1.0717,1.073,1.0736,1.0741,1.0741,1.0745,1.0743,1.0739,1.074,1.0739,1.0739,1.0737,1.0736,1.0743,1.0743,1.0743,0,1.0633,1.0646,1.0655,1.0662,1.0668,1.0676,1.0682,1.0688,1.0701,1.0704,1.0706,1.0721,1.0728,1.0735,1.0735,1.0739,1.0739,1.0742,1.0739,1.0738,1.0738,1.0736,1.0736,1.0742,1.0742,1.0743,1.0743,0,1.064,1.0648,1.0652,1.0664,1.0669,1.0676,1.0685,1.0689,1.0694,1.07,1.0707,1.0715,1.0724,1.0726,1.0731,1.0733,1.0733,1.0737,1.0741,1.0737,1.0735,1.0735,1.0742,1.0742,1.0742,1.0742,0,0,1.0639,1.0654,1.0655,1.0659,1.0671,1.0676,1.0682,1.069,1.0692,1.07,1.0704,1.0713,1.0716,1.0721,1.0726,1.0727,1.0724,1.0731,1.0731,1.0728,1.0723,1.072,1.0719,1.0727,1.0727,1.0727,1.0722,0,1.0641,1.0651,1.0659,1.0666,1.0672,1.0678,1.0683,1.0689,1.0694,1.0699,1.0704,1.071,1.0714,1.0717,1.0718,1.0724,1.0723,1.0725,1.0728,1.0729,1.0725,1.0718,1.0716,1.0711,1.0721,1.0721,1.0721,0,1.0645,1.0652,1.0659,1.0668,1.067,1.0674,1.068,1.0685,1.0692,1.0695,1.07,1.0705,1.0708,1.0711,1.0716,1.0716,1.0718,1.0721,1.0721,1.0721,1.0724,1.0717,1.071,1.0708,1.0721,1.0721,1.0721,0,1.0641,1.0652,1.0657,1.0661,1.0671,1.0673,1.0677,1.0684,1.0687,1.0692,1.0694,1.0699,1.0702,1.0705,1.0711,1.0713,1.0714,1.0718,1.0715,1.0715,1.0715,1.0715,1.0706,1.0718,1.0718,1.0718,1.0718,0,1.0642,1.0646,1.0655,1.0658,1.0662,1.0669,1.0672,1.0677,1.0682,1.0685,1.0691,1.0693,1.0701,1.0703,1.0708,1.0709,1.0711,1.0712,1.0713,1.0711,1.0711,1.0712,1.0712,1.0718,1.0718,1.0718,1.0718,0,1.0638,1.0645,1.0651,1.0659,1.0661,1.0663,1.0669,1.0672,1.0676,1.0679,1.068,1.0687,1.069,1.0696,1.0701,1.0704,1.0704,1.0706,1.0702,1.0702,1.0699,1.0698,1.069,1.0689,1.0702,1.0702,1.0702,0,1.0638,1.0641,1.0649,1.0651,1.0655,1.0659,1.0662,1.0668,1.067,1.0676,1.0677,1.0681,1.0684,1.0688,1.0693,1.0696,1.0698,1.0694,1.0698,1.0695,1.0696,1.0695,1.0694,1.0693,1.0693,1.0693,1.0693,0,1.0637,1.0639,1.0643,1.0648,1.0651,1.0655,1.0659,1.066,1.0667,1.0669,1.0672,1.0674,1.0678,1.0681,1.0684,1.0687,1.069,1.0692,1.0691,1.0689,1.0685,1.0685,1.0698,1.0692,1.0692,1.0692,1.0692,1.0692,1.0634,1.0636,1.0641,1.0644,1.0648,1.065,1.0652,1.0656,1.0659,1.0662,1.0666,1.0668,1.0671,1.0676,1.0678,1.0679,1.0681,1.068,1.068,1.0679,1.0678,1.0686,1.068,1.068,1.068,1.068,1.068,0,1.0632,1.0634,1.0637,1.0642,1.0644,1.0647,1.0651,1.0652,1.0654,1.0657,1.0659,1.0661,1.0663,1.0667,1.0668,1.0668,1.0669,1.0668,1.0668,1.0668,1.0677,1.0677,1.0667,1.0667,1.0667,1.0667,1.0667,1.0667,1.063,1.0633,1.0635,1.0638,1.064,1.0642,1.0644,1.0646,1.0648,1.065,1.0651,1.0653,1.0656,1.0657,1.0658,1.0659,1.0659,1.0657,1.0658,1.0666,1.0668,1.0669,1.0669,1.0657,1.0657,1.0649,1.0649,1.0649]}]]